Regional Weather Roundup
Issued by NWS

Home | Current Version | Previous Version | Text Only | Print | Product List | Glossary On
Versions: 1 2 3 4 5 6 7 8 9 10 11 12 13 14 15 16 17 18 19 20 21 22 23 24 25 26 27
000
ASUS45 KREV 290210
RWRNV
NEVADA REGIONAL WEATHER ROUNDUP
NATIONAL WEATHER SERVICE RENO NV
700 PM PDT WED JUN 28 2017

NOTE: "FAIR" INDICATES FEW OR NO CLOUDS BELOW 12,000 FEET WITH NO
SIGNIFICANT WEATHER AND/OR OBSTRUCTIONS TO VISIBILITY.

NVZ001-003-004-290300-
WESTERN NEVADA

CITY           SKY/WX    TMP DP  RH WIND       PRES   REMARKS
RENO           MOSUNNY   85  35  16 W13G22    29.98R
CARSON CITY    FAIR      81  27  13 W9        30.02R
MINDEN         FAIR      79  32  18 NW13      30.03R
FALLON         MOSUNNY   89  17   7 NW12      29.90R
LOVELOCK       SUNNY     87  27  11 W12       29.90S
HAWTHORNE      SUNNY     90  19   7 N18       29.91R
$$

NVZ002-CAZ072-073-290300-
NORTHERN AND CENTRAL SIERRA

CITY           SKY/WX    TMP DP  RH WIND       PRES   REMARKS
S. LAKE TAHOE  SUNNY     70  29  21 VRB5      30.14R
TRUCKEE        SUNNY     72  34  25 SW7       30.13R
SQUAW VLY 8000   N/A     55  36  47 W3          N/A
SUSANVILLE     SUNNY     82  36  18 W16       29.97R
MAMMOTH LAKES  FAIR      75  35  23 W16       30.16S
BRIDGEPORT     FAIR      72  31  22 VRB5      30.13R
$$

NVZ030-031-036-290300-
NORTHERN NEVADA

CITY           SKY/WX    TMP DP  RH WIND       PRES   REMARKS
ELKO           MOSUNNY   81  24  12 W16       29.96R
WINNEMUCCA     SUNNY     86  28  12 W16G22    29.91S
WENDOVER       SUNNY     86  26  11 NW23G29   29.85R
$$

NVZ035-037-290300-
CENTRAL NEVADA

CITY           SKY/WX    TMP DP  RH WIND       PRES   REMARKS
ELY            SUNNY     81  27  14 NW14      30.00R
EUREKA           N/A     80  20  10 NW20G25   30.02R
$$

NVZ013-014-290300-
SOUTH CENTRAL NEVADA

CITY           SKY/WX    TMP DP  RH WIND       PRES   REMARKS
TONOPAH        SUNNY     85  17   8 N12G26    29.99R
$$

NVZ017-020-022-290300-
SOUTHERN NEVADA

CITY           SKY/WX    TMP DP  RH WIND       PRES   REMARKS
LAS VEGAS      SUNNY    103  10   3 SW13G25   29.68R
N. LAS VEGAS   SUNNY    103  18   5 W15       29.66R
NELLIS AFB     SUNNY    103  24   6 S15       29.63S
HENDERSON      SUNNY    101  27   7 W14       29.73R
MERCURY        SUNNY     97  21   6 W13G21    29.77S
$$




USA.gov is the U.S. government's official web portal to all federal, state and local government web resources and services.